Home > Weather > Sanikiluaq > Past weeks

Flag for Canada Past Weather in Sanikiluaq, Nunavut, Canada — Yesterday and Last 2 Weeks

Now
52 °F

Sunny.


Feels Like: 49 °F
Forecast: 23 / 37 °F
Wind: 9 mph from North

Location: Kuujjuarapik

Current Time: May 26, 2016 at 2:37:26 PM

Latest Report: May 26, 2016 at 2:00 PM


Visibility: 9 mi

Pressure: 30.14 "Hg

Humidity: 38%

Dew Point: 27 °F

Location of SanikiluaqLocation

Past Weather in Sanikiluaq — Graph

°F

Sanikiluaq Temperature Yesterday

Maximum temperature yesterday: 36 °F (at 9:00 AM)
Minimum temperature yesterday: 28 °F (at 12:00 AM)
Average temperature yesterday: 33 °F

High & Low Weather Summary for the Past Weeks

 TemperatureHumidityPressure
High59 °F (May 11, 5:00 PM)100% (May 13, 7:02 PM)30.34 "Hg (May 13, 7:02 PM)
Low25 °F (May 26, 1:00 AM)31% (May 11, 5:00 PM)29.37 "Hg (May 13, 10:59 PM)
Average36 °F83%29.93 "Hg
* Reported May 11 1:00 PM — May 26 1:00 PM, Sanikiluaq, Weather by CustomWeather, © 2016

Note: Actual official high and low records may vary slightly from our data, if they occured in-between our weather recording intervals... More about our weather records

Advertising

Sanikiluaq Weather History for the Previous 24 Hours

Scroll right to see more
 ConditionsComfort  
Time TempWeatherWind HumidityBarometerVisibility
1:00 PM
Thu, May 26
50 °FSunny.10 mph40%30.15 "Hg9 mi
12:00 PM50 °FSunny.9 mph37%30.18 "Hg9 mi
11:00 AM46 °FSunny.9 mph53%30.19 "Hg9 mi
10:00 AM50 °FSunny.3 mph37%30.22 "Hg9 mi
9:00 AM45 °FSunny.6 mph49%30.24 "Hg9 mi
8:00 AM39 °FSunny.10 mph61%30.25 "Hg9 mi
7:00 AM34 °FSunny.13 mph70%30.26 "Hg9 mi
6:00 AM32 °FSunny.13 mph75%30.26 "Hg9 mi
5:00 AM32 °FClear.10 mph75%30.26 "Hg9 mi
4:00 AM25 °FClear.3 mph93%30.27 "Hg9 mi
3:00 AM25 °FClear.No wind93%30.28 "Hg9 mi
2:00 AM25 °FClear.3 mph93%30.28 "Hg9 mi
1:00 AM25 °FClear.No wind93%30.29 "Hg9 mi
12:00 AM28 °FClear.No wind80%30.29 "Hg9 mi
11:00 PM
Wed, May 25
28 °FClear.No wind86%30.30 "Hg9 mi
10:00 PM30 °FSunny.6 mph75%30.31 "Hg9 mi
9:00 PM32 °FSunny.8 mph69%30.32 "Hg9 mi
8:00 PM34 °FSunny.7 mph65%30.33 "Hg9 mi
7:00 PM36 °FOvercast.9 mph60%30.32 "Hg9 mi
6:00 PM36 °FOvercast.8 mph65%30.33 "Hg9 mi
5:00 PM36 °FPartly sunny.10 mph75%30.33 "Hg9 mi
4:00 PM36 °FPassing clouds.13 mph75%30.33 "Hg9 mi
3:00 PM36 °FPartly sunny.12 mph75%30.32 "Hg9 mi
2:00 PM34 °FPartly sunny.10 mph81%30.34 "Hg9 mi
Weather by CustomWeather, © 2016

See weather overviewHow to use our weather pages